Time,TemperatureF,DewpointF,PressureIn,WindDirection,WindDirectionDegrees,WindSpeedMPH,WindSpeedGustMPH,Humidity,HourlyPrecipIn,Conditions,Clouds,dailyrainin,SoftwareType,DateUTC
2013-01-13 00:00:00,39.1,35.3,30.15,West,271,0.0,0.0,86,0.00,,,0.00,WeatherCatV1.11B39,2013-01-13 05:00:00,
2013-01-13 00:05:00,39.2,35.7,30.15,West,271,0.0,0.0,87,0.00,,,0.00,WeatherCatV1.11B39,2013-01-13 05:05:00,
2013-01-13 00:10:00,39.1,35.6,30.15,West,271,0.0,0.0,87,0.00,,,0.00,WeatherCatV1.11B39,2013-01-13 05:10:00,
2013-01-13 00:15:00,38.8,35.3,30.15,West,271,0.0,0.0,87,0.00,,,0.00,WeatherCatV1.11B39,2013-01-13 05:15:00,
2013-01-13 00:20:00,38.7,34.9,30.14,West,271,0.0,0.0,86,0.00,,,0.00,WeatherCatV1.11B39,2013-01-13 05:20:00,
2013-01-13 00:25:00,38.7,34.9,30.14,West,271,0.0,0.0,86,0.00,,,0.00,WeatherCatV1.11B39,2013-01-13 05:25:00,
2013-01-13 00:30:00,38.7,35.2,30.14,West,271,0.0,0.0,87,0.00,,,0.00,WeatherCatV1.11B39,2013-01-13 05:30:00,
2013-01-13 00:35:00,38.1,34.3,30.14,West,271,0.0,0.0,86,0.00,,,0.00,WeatherCatV1.11B39,2013-01-13 05:35:00,
2013-01-13 00:40:00,37.7,33.9,30.14,West,271,0.0,0.0,86,0.00,,,0.00,WeatherCatV1.11B39,2013-01-13 05:40:00,
2013-01-13 00:45:00,37.8,34.0,30.14,West,271,0.0,0.0,86,0.00,,,0.00,WeatherCatV1.11B39,2013-01-13 05:45:00,
2013-01-13 00:50:00,38.7,35.2,30.12,West,271,0.0,0.0,87,0.00,,,0.00,WeatherCatV1.11B39,2013-01-13 05:50:00,
2013-01-13 00:55:00,39.2,35.7,30.13,West,271,0.0,0.0,87,0.00,,,0.00,WeatherCatV1.11B39,2013-01-13 05:55:00,
2013-01-13 01:00:00,39.8,36.3,30.13,West,271,0.0,0.0,87,0.00,,,0.00,WeatherCatV1.11B39,2013-01-13 06:00:00,
2013-01-13 01:05:00,39.9,36.3,30.13,West,271,0.0,0.0,87,0.00,,,0.00,WeatherCatV1.11B39,2013-01-13 06:05:00,
2013-01-13 01:10:00,40.1,36.5,30.13,West,271,0.0,0.0,87,0.00,,,0.00,WeatherCatV1.11B39,2013-01-13 06:10:00,
2013-01-13 01:15:00,40.5,36.9,30.13,West,271,0.0,0.0,87,0.00,,,0.00,WeatherCatV1.11B39,2013-01-13 06:15:00,
2013-01-13 01:20:00,40.4,36.8,30.13,West,271,0.0,0.0,87,0.00,,,0.00,WeatherCatV1.11B39,2013-01-13 06:20:00,
2013-01-13 01:25:00,39.9,36.3,30.14,West,271,0.0,0.0,87,0.00,,,0.00,WeatherCatV1.11B39,2013-01-13 06:25:00,
2013-01-13 01:30:00,39.1,35.3,30.14,West,271,0.0,0.0,86,0.00,,,0.00,WeatherCatV1.11B39,2013-01-13 06:30:00,
2013-01-13 01:35:00,38.4,34.6,30.15,West,271,0.0,0.0,86,0.00,,,0.00,WeatherCatV1.11B39,2013-01-13 06:35:00,
2013-01-13 01:40:00,37.9,34.1,30.15,West,271,0.0,0.0,86,0.00,,,0.00,WeatherCatV1.11B39,2013-01-13 06:40:00,
2013-01-13 01:45:00,37.7,33.9,30.14,West,271,0.0,0.0,86,0.00,,,0.00,WeatherCatV1.11B39,2013-01-13 06:45:00,
2013-01-13 01:50:00,38.1,34.3,30.14,West,271,0.0,0.0,86,0.00,,,0.00,WeatherCatV1.11B39,2013-01-13 06:50:00,
2013-01-13 01:55:00,38.1,34.3,30.15,West,271,0.0,0.0,86,0.00,,,0.00,WeatherCatV1.11B39,2013-01-13 06:55:00,
2013-01-13 02:00:00,38.0,34.2,30.15,West,271,0.0,0.0,86,0.00,,,0.00,WeatherCatV1.11B39,2013-01-13 07:00:00,
2013-01-13 02:05:00,37.8,34.0,30.14,West,271,0.0,0.0,86,0.00,,,0.00,WeatherCatV1.11B39,2013-01-13 07:05:00,
2013-01-13 02:10:00,37.8,34.3,30.15,West,271,0.0,0.0,87,0.00,,,0.00,WeatherCatV1.11B39,2013-01-13 07:10:00,
2013-01-13 02:15:00,38.0,34.2,30.15,West,271,0.0,0.0,86,0.00,,,0.00,WeatherCatV1.11B39,2013-01-13 07:15:00,
2013-01-13 02:20:00,38.2,34.4,30.15,West,271,0.0,0.0,86,0.00,,,0.00,WeatherCatV1.11B39,2013-01-13 07:20:00,
2013-01-13 02:25:00,38.3,34.8,30.14,West,271,0.0,0.0,87,0.00,,,0.00,WeatherCatV1.11B39,2013-01-13 07:25:00,
2013-01-13 02:30:00,38.1,34.6,30.14,West,271,0.0,0.0,87,0.00,,,0.00,WeatherCatV1.11B39,2013-01-13 07:30:00,
2013-01-13 02:35:00,38.1,34.6,30.14,West,271,0.0,0.0,87,0.00,,,0.00,WeatherCatV1.11B39,2013-01-13 07:35:00,
2013-01-13 02:40:00,37.8,34.0,30.15,West,271,0.0,0.0,86,0.00,,,0.00,WeatherCatV1.11B39,2013-01-13 07:40:00,
2013-01-13 02:45:00,37.4,33.6,30.15,West,271,0.0,0.0,86,0.00,,,0.00,WeatherCatV1.11B39,2013-01-13 07:45:00,
2013-01-13 02:50:00,37.4,33.9,30.15,West,271,0.0,0.0,87,0.00,,,0.00,WeatherCatV1.11B39,2013-01-13 07:50:00,
2013-01-13 02:55:00,37.5,33.7,30.15,West,271,0.0,0.0,86,0.00,,,0.00,WeatherCatV1.11B39,2013-01-13 07:55:00,
2013-01-13 03:00:00,37.7,33.9,30.15,West,271,0.0,0.0,86,0.00,,,0.00,WeatherCatV1.11B39,2013-01-13 08:00:00,
2013-01-13 03:05:00,37.7,34.2,30.14,West,271,0.0,0.0,87,0.00,,,0.00,WeatherCatV1.11B39,2013-01-13 08:05:00,
2013-01-13 03:10:00,37.7,33.9,30.15,West,271,0.0,0.0,86,0.00,,,0.00,WeatherCatV1.11B39,2013-01-13 08:10:00,
2013-01-13 03:15:00,37.7,33.9,30.14,West,271,0.0,0.0,86,0.00,,,0.00,WeatherCatV1.11B39,2013-01-13 08:15:00,
2013-01-13 03:20:00,37.9,34.1,30.14,West,271,0.0,0.0,86,0.00,,,0.00,WeatherCatV1.11B39,2013-01-13 08:20:00,
2013-01-13 03:25:00,38.3,34.8,30.13,West,271,0.0,0.0,87,0.00,,,0.00,WeatherCatV1.11B39,2013-01-13 08:25:00,
2013-01-13 03:30:00,38.1,34.6,30.13,West,271,0.0,0.0,87,0.00,,,0.00,WeatherCatV1.11B39,2013-01-13 08:30:00,
2013-01-13 03:35:00,37.4,33.9,30.13,West,271,0.0,0.0,87,0.00,,,0.00,WeatherCatV1.11B39,2013-01-13 08:35:00,
2013-01-13 03:40:00,37.0,33.5,30.12,West,271,0.0,0.0,87,0.00,,,0.00,WeatherCatV1.11B39,2013-01-13 08:40:00,
2013-01-13 03:45:00,37.0,33.5,30.13,West,271,0.0,0.0,87,0.00,,,0.00,WeatherCatV1.11B39,2013-01-13 08:45:00,
2013-01-13 03:50:00,37.1,33.6,30.13,West,271,0.0,0.0,87,0.00,,,0.00,WeatherCatV1.11B39,2013-01-13 08:50:00,
2013-01-13 03:55:00,37.2,33.7,30.13,West,271,0.0,0.0,87,0.00,,,0.00,WeatherCatV1.11B39,2013-01-13 08:55:00,
2013-01-13 04:00:00,36.7,33.5,30.12,West,271,0.0,0.0,88,0.00,,,0.00,WeatherCatV1.11B39,2013-01-13 09:00:00,
2013-01-13 04:05:00,36.7,33.2,30.12,West,271,0.0,0.0,87,0.00,,,0.00,WeatherCatV1.11B39,2013-01-13 09:05:00,
2013-01-13 04:10:00,37.2,33.7,30.11,West,271,0.0,0.0,87,0.00,,,0.00,WeatherCatV1.11B39,2013-01-13 09:10:00,
2013-01-13 04:15:00,37.5,34.0,30.10,West,271,0.0,0.0,87,0.00,,,0.00,WeatherCatV1.11B39,2013-01-13 09:15:00,
2013-01-13 04:20:00,37.1,33.6,30.10,West,271,0.0,0.0,87,0.00,,,0.00,WeatherCatV1.11B39,2013-01-13 09:20:00,
2013-01-13 04:25:00,37.1,33.6,30.10,West,271,0.0,0.0,87,0.00,,,0.00,WeatherCatV1.11B39,2013-01-13 09:25:00,
2013-01-13 04:30:00,36.7,33.2,30.12,West,271,0.0,0.0,87,0.00,,,0.00,WeatherCatV1.11B39,2013-01-13 09:30:00,
2013-01-13 04:35:00,36.2,32.7,30.12,West,271,0.0,0.0,87,0.00,,,0.00,WeatherCatV1.11B39,2013-01-13 09:35:00,
2013-01-13 04:40:00,36.8,33.3,30.12,West,271,0.0,0.0,87,0.00,,,0.00,WeatherCatV1.11B39,2013-01-13 09:40:00,
2013-01-13 04:46:00,37.4,33.9,30.11,ENE,63,3.0,3.0,87,0.00,,,0.00,WeatherCatV1.11B39,2013-01-13 09:46:00,
2013-01-13 04:51:00,37.7,34.2,30.11,ENE,63,0.0,0.0,87,0.00,,,0.00,WeatherCatV1.11B39,2013-01-13 09:51:00,
2013-01-13 04:56:00,37.8,34.3,30.11,ENE,63,0.0,0.0,87,0.00,,,0.00,WeatherCatV1.11B39,2013-01-13 09:56:00,
2013-01-13 05:01:00,36.9,33.4,30.11,ENE,63,0.0,0.0,87,0.00,,,0.00,WeatherCatV1.11B39,2013-01-13 10:01:00,
2013-01-13 05:06:00,36.8,33.6,30.11,ENE,63,0.0,0.0,88,0.00,,,0.00,WeatherCatV1.11B39,2013-01-13 10:06:00,
2013-01-13 05:11:00,36.8,33.3,30.11,ENE,63,0.0,0.0,87,0.00,,,0.00,WeatherCatV1.11B39,2013-01-13 10:11:00,
2013-01-13 05:16:00,37.4,33.9,30.10,ENE,63,0.0,0.0,87,0.00,,,0.00,WeatherCatV1.11B39,2013-01-13 10:16:00,
2013-01-13 05:21:00,37.5,34.0,30.10,ENE,62,0.0,0.0,87,0.00,,,0.00,WeatherCatV1.11B39,2013-01-13 10:21:00,
2013-01-13 05:26:00,37.9,34.4,30.11,ENE,60,0.0,0.0,87,0.00,,,0.00,WeatherCatV1.11B39,2013-01-13 10:26:00,
2013-01-13 05:31:00,37.2,33.7,30.11,WNW,296,0.0,0.0,87,0.00,,,0.00,WeatherCatV1.11B39,2013-01-13 10:31:00,
2013-01-13 05:36:00,37.0,33.5,30.13,WNW,296,0.0,0.0,87,0.00,,,0.00,WeatherCatV1.11B39,2013-01-13 10:36:00,
2013-01-13 05:41:00,36.8,33.6,30.13,WNW,296,0.0,0.0,88,0.00,,,0.00,WeatherCatV1.11B39,2013-01-13 10:41:00,
2013-01-13 05:46:00,36.7,33.2,30.13,WNW,296,0.0,0.0,87,0.00,,,0.00,WeatherCatV1.11B39,2013-01-13 10:46:00,
2013-01-13 05:51:00,37.0,33.5,30.12,WNW,296,0.0,0.0,87,0.00,,,0.00,WeatherCatV1.11B39,2013-01-13 10:51:00,
2013-01-13 05:56:00,38.2,34.7,30.11,WNW,297,0.0,0.0,87,0.00,,,0.00,WeatherCatV1.11B39,2013-01-13 10:56:00,
2013-01-13 06:01:00,38.8,35.6,30.11,WNW,296,0.0,0.0,88,0.00,,,0.00,WeatherCatV1.11B39,2013-01-13 11:01:00,
2013-01-13 06:06:00,38.4,35.2,30.11,WNW,296,0.0,0.0,88,0.00,,,0.00,WeatherCatV1.11B39,2013-01-13 11:06:00,
2013-01-13 06:11:00,37.9,34.4,30.11,WNW,296,0.0,0.0,87,0.00,,,0.00,WeatherCatV1.11B39,2013-01-13 11:11:00,
2013-01-13 06:16:00,38.1,34.9,30.11,WNW,296,0.0,0.0,88,0.00,,,0.00,WeatherCatV1.11B39,2013-01-13 11:16:00,
2013-01-13 06:21:00,38.5,35.0,30.12,WNW,296,0.0,0.0,87,0.00,,,0.00,WeatherCatV1.11B39,2013-01-13 11:21:00,
2013-01-13 06:26:00,38.7,35.5,30.12,WNW,296,0.0,0.0,88,0.00,,,0.00,WeatherCatV1.11B39,2013-01-13 11:26:00,
2013-01-13 06:31:00,38.9,35.4,30.12,WNW,296,0.0,0.0,87,0.00,,,0.00,WeatherCatV1.11B39,2013-01-13 11:31:00,
2013-01-13 06:36:00,39.1,35.6,30.13,WNW,296,0.0,0.0,87,0.00,,,0.00,WeatherCatV1.11B39,2013-01-13 11:36:00,
2013-01-13 06:41:00,38.7,35.2,30.12,WNW,296,0.0,0.0,87,0.00,,,0.00,WeatherCatV1.11B39,2013-01-13 11:41:00,
2013-01-13 06:46:00,38.8,35.3,30.12,WNW,296,0.0,0.0,87,0.00,,,0.00,WeatherCatV1.11B39,2013-01-13 11:46:00,
2013-01-13 06:51:00,38.7,35.2,30.12,WNW,296,0.0,0.0,87,0.00,,,0.00,WeatherCatV1.11B39,2013-01-13 11:51:00,
2013-01-13 06:56:00,38.1,34.6,30.12,WNW,296,0.0,0.0,87,0.00,,,0.00,WeatherCatV1.11B39,2013-01-13 11:56:00,
2013-01-13 07:01:00,38.1,34.6,30.12,WNW,296,0.0,0.0,87,0.00,,,0.00,WeatherCatV1.11B39,2013-01-13 12:01:00,
2013-01-13 07:06:00,38.4,34.9,30.13,WNW,296,0.0,0.0,87,0.00,,,0.00,WeatherCatV1.11B39,2013-01-13 12:06:00,
2013-01-13 07:11:00,38.1,34.6,30.13,WNW,296,0.0,0.0,87,0.00,,,0.00,WeatherCatV1.11B39,2013-01-13 12:11:00,
2013-01-13 07:16:00,37.8,34.3,30.13,WNW,296,0.0,0.0,87,0.00,,,0.00,WeatherCatV1.11B39,2013-01-13 12:16:00,
2013-01-13 07:21:00,37.9,34.4,30.13,WNW,296,0.0,0.0,87,0.00,,,0.00,WeatherCatV1.11B39,2013-01-13 12:21:00,
2013-01-13 07:26:00,38.2,35.0,30.13,WNW,296,0.0,0.0,88,0.00,,,0.00,WeatherCatV1.11B39,2013-01-13 12:26:00,
2013-01-13 07:31:00,38.5,35.0,30.13,WNW,296,0.0,0.0,87,0.00,,,0.00,WeatherCatV1.11B39,2013-01-13 12:31:00,
2013-01-13 07:36:00,38.8,35.6,30.14,WNW,296,0.0,0.0,88,0.00,,,0.00,WeatherCatV1.11B39,2013-01-13 12:36:00,
2013-01-13 07:41:00,38.4,35.2,30.14,WNW,296,0.0,0.0,88,0.00,,,0.00,WeatherCatV1.11B39,2013-01-13 12:41:00,
2013-01-13 07:46:00,38.0,34.5,30.15,WNW,296,0.0,0.0,87,0.00,,,0.00,WeatherCatV1.11B39,2013-01-13 12:46:00,
2013-01-13 07:51:00,38.3,34.8,30.14,WNW,298,0.0,0.0,87,0.00,,,0.00,WeatherCatV1.11B39,2013-01-13 12:51:00,
2013-01-13 07:56:00,38.7,35.2,30.14,WNW,299,0.0,0.0,87,0.00,,,0.00,WeatherCatV1.11B39,2013-01-13 12:56:00,
2013-01-13 08:01:00,39.3,35.8,30.14,WNW,299,0.0,0.0,87,0.00,,,0.00,WeatherCatV1.11B39,2013-01-13 13:01:00,
2013-01-13 08:06:00,39.4,35.9,30.13,WNW,295,0.0,0.0,87,0.00,,,0.00,WeatherCatV1.11B39,2013-01-13 13:06:00,
2013-01-13 08:11:00,39.4,35.9,30.14,WNW,295,0.0,0.0,87,0.00,,,0.00,WeatherCatV1.11B39,2013-01-13 13:11:00,
2013-01-13 08:16:00,39.1,35.6,30.14,WNW,295,0.0,0.0,87,0.00,,,0.00,WeatherCatV1.11B39,2013-01-13 13:16:00,
2013-01-13 08:21:00,38.8,35.3,30.15,WNW,295,0.0,0.0,87,0.00,,,0.00,WeatherCatV1.11B39,2013-01-13 13:21:00,
2013-01-13 08:26:00,39.0,35.5,30.15,WNW,295,0.0,0.0,87,0.00,,,0.00,WeatherCatV1.11B39,2013-01-13 13:26:00,
2013-01-13 08:31:00,39.1,35.6,30.15,WNW,295,0.0,0.0,87,0.00,,,0.00,WeatherCatV1.11B39,2013-01-13 13:31:00,
2013-01-13 08:36:00,39.1,35.6,30.15,WNW,295,0.0,0.0,87,0.00,,,0.00,WeatherCatV1.11B39,2013-01-13 13:36:00,
2013-01-13 08:41:00,39.5,36.0,30.14,WNW,298,0.0,0.0,87,0.00,,,0.00,WeatherCatV1.11B39,2013-01-13 13:41:00,
2013-01-13 08:46:00,39.8,36.3,30.15,WNW,298,0.0,0.0,87,0.00,,,0.00,WeatherCatV1.11B39,2013-01-13 13:46:00,
2013-01-13 08:51:00,39.8,36.3,30.15,WNW,298,0.0,0.0,87,0.00,,,0.00,WeatherCatV1.11B39,2013-01-13 13:51:00,
2013-01-13 08:56:00,39.7,36.2,30.15,WNW,299,0.0,0.0,87,0.00,,,0.00,WeatherCatV1.11B39,2013-01-13 13:56:00,
2013-01-13 09:01:00,39.7,36.2,30.15,WNW,299,0.0,0.0,87,0.00,,,0.00,WeatherCatV1.11B39,2013-01-13 14:01:00,
2013-01-13 09:06:00,39.4,35.9,30.16,WNW,299,0.0,0.0,87,0.00,,,0.00,WeatherCatV1.11B39,2013-01-13 14:06:00,
2013-01-13 09:11:00,39.2,35.7,30.16,WNW,299,0.0,0.0,87,0.00,,,0.00,WeatherCatV1.11B39,2013-01-13 14:11:00,
2013-01-13 09:16:00,39.2,35.7,30.16,WNW,299,0.0,0.0,87,0.00,,,0.00,WeatherCatV1.11B39,2013-01-13 14:16:00,
2013-01-13 09:21:00,39.4,35.9,30.16,WNW,299,0.0,0.0,87,0.00,,,0.00,WeatherCatV1.11B39,2013-01-13 14:21:00,
2013-01-13 09:26:00,39.7,36.2,30.15,WNW,299,0.0,0.0,87,0.00,,,0.00,WeatherCatV1.11B39,2013-01-13 14:26:00,
2013-01-13 09:31:00,40.1,36.5,30.15,WNW,299,0.0,0.0,87,0.00,,,0.00,WeatherCatV1.11B39,2013-01-13 14:31:00,
2013-01-13 09:36:00,40.4,36.8,30.15,WNW,299,0.0,0.0,87,0.00,,,0.00,WeatherCatV1.11B39,2013-01-13 14:36:00,
2013-01-13 09:41:00,40.4,36.8,30.15,WNW,299,0.0,0.0,87,0.00,,,0.00,WeatherCatV1.11B39,2013-01-13 14:41:00,
2013-01-13 09:46:00,40.4,36.8,30.16,WNW,299,0.0,0.0,87,0.00,,,0.00,WeatherCatV1.11B39,2013-01-13 14:46:00,
2013-01-13 09:51:00,40.6,37.0,30.15,WNW,299,0.0,0.0,87,0.00,,,0.00,WeatherCatV1.11B39,2013-01-13 14:51:00,
2013-01-13 09:56:00,40.8,37.2,30.16,WNW,299,0.0,0.0,87,0.00,,,0.00,WeatherCatV1.11B39,2013-01-13 14:56:00,
2013-01-13 10:01:00,41.1,37.5,30.16,WNW,299,0.0,0.0,87,0.00,,,0.00,WeatherCatV1.11B39,2013-01-13 15:01:00,
2013-01-13 10:06:00,41.1,37.8,30.16,WNW,299,0.0,0.0,88,0.00,,,0.00,WeatherCatV1.11B39,2013-01-13 15:06:00,
2013-01-13 10:11:00,41.1,37.8,30.16,WNW,299,0.0,0.0,88,0.00,,,0.00,WeatherCatV1.11B39,2013-01-13 15:11:00,
2013-01-13 10:16:00,41.2,37.6,30.16,WNW,299,0.0,0.0,87,0.00,,,0.00,WeatherCatV1.11B39,2013-01-13 15:16:00,
2013-01-13 10:21:00,41.4,37.8,30.16,WNW,299,0.0,0.0,87,0.00,,,0.00,WeatherCatV1.11B39,2013-01-13 15:21:00,
2013-01-13 10:26:00,41.5,37.9,30.15,WNW,302,0.0,0.0,87,0.00,,,0.00,WeatherCatV1.11B39,2013-01-13 15:26:00,
2013-01-13 10:31:00,41.8,38.2,30.15,WNW,302,0.0,0.0,87,0.00,,,0.00,WeatherCatV1.11B39,2013-01-13 15:31:00,
2013-01-13 10:36:00,42.1,38.8,30.15,WNW,302,0.0,0.0,88,0.00,,,0.00,WeatherCatV1.11B39,2013-01-13 15:36:00,
2013-01-13 10:41:00,42.2,38.6,30.15,NW,305,0.0,0.0,87,0.00,,,0.00,WeatherCatV1.11B39,2013-01-13 15:41:00,
2013-01-13 10:46:00,42.5,38.9,30.14,NW,305,0.0,0.0,87,0.00,,,0.00,WeatherCatV1.11B39,2013-01-13 15:46:00,
2013-01-13 10:51:00,42.8,39.5,30.14,NW,307,0.0,0.0,88,0.00,,,0.00,WeatherCatV1.11B39,2013-01-13 15:51:00,
2013-01-13 10:56:00,43.0,39.7,30.14,NW,307,0.0,0.0,88,0.00,,,0.00,WeatherCatV1.11B39,2013-01-13 15:56:00,
2013-01-13 11:01:00,42.9,39.6,30.14,NW,306,0.0,0.0,88,0.00,,,0.00,WeatherCatV1.11B39,2013-01-13 16:01:00,
2013-01-13 11:06:00,42.8,39.5,30.13,NW,306,0.0,0.0,88,0.00,,,0.00,WeatherCatV1.11B39,2013-01-13 16:06:00,
2013-01-13 11:10:00,42.8,39.2,30.13,NW,308,0.0,0.0,87,0.00,,,0.00,WeatherCatV1.11B39,2013-01-13 16:10:00,
2013-01-13 11:15:00,43.1,39.5,30.13,NW,308,0.0,0.0,87,0.00,,,0.00,WeatherCatV1.11B39,2013-01-13 16:15:00,
2013-01-13 11:20:00,43.4,40.1,30.13,NW,308,0.0,0.0,88,0.00,,,0.00,WeatherCatV1.11B39,2013-01-13 16:20:00,
2013-01-13 11:25:00,43.6,40.3,30.12,NW,308,0.0,0.0,88,0.00,,,0.00,WeatherCatV1.11B39,2013-01-13 16:25:00,
2013-01-13 11:30:00,43.9,40.6,30.12,NW,308,0.0,0.0,88,0.00,,,0.00,WeatherCatV1.11B39,2013-01-13 16:30:00,
2013-01-13 11:35:00,44.2,40.9,30.12,NW,308,0.0,0.0,88,0.00,,,0.00,WeatherCatV1.11B39,2013-01-13 16:35:00,
2013-01-13 11:40:00,44.6,41.6,30.12,NW,308,0.0,0.0,89,0.00,,,0.00,WeatherCatV1.11B39,2013-01-13 16:40:00,
2013-01-13 11:45:00,45.2,41.9,30.12,NW,308,0.0,0.0,88,0.00,,,0.00,WeatherCatV1.11B39,2013-01-13 16:45:00,
2013-01-13 11:50:00,45.3,42.0,30.11,NW,308,0.0,0.0,88,0.00,,,0.00,WeatherCatV1.11B39,2013-01-13 16:50:00,
2013-01-13 11:55:00,45.4,42.1,30.11,NW,308,0.0,0.0,88,0.00,,,0.00,WeatherCatV1.11B39,2013-01-13 16:55:00,
2013-01-13 12:00:00,45.6,42.3,30.11,NW,307,0.0,0.0,88,0.00,,,0.00,WeatherCatV1.11B39,2013-01-13 17:00:00,
2013-01-13 12:05:00,46.0,44.9,30.11,South,188,0.0,0.0,96,0.00,,,0.00,WeatherCatV1.11B39,2013-01-13 17:05:00,
2013-01-13 12:10:00,46.2,44.8,30.10,SSW,209,0.0,0.0,95,0.00,,,0.00,WeatherCatV1.11B39,2013-01-13 17:10:00,
2013-01-13 12:15:00,46.5,45.4,30.11,South,176,0.0,0.0,96,0.00,,,0.00,WeatherCatV1.11B39,2013-01-13 17:15:00,
2013-01-13 12:20:00,46.4,45.3,30.10,South,182,0.0,0.0,96,0.00,,,0.00,WeatherCatV1.11B39,2013-01-13 17:20:00,
2013-01-13 12:25:00,46.4,45.3,30.10,South,178,0.0,0.0,96,0.00,,,0.00,WeatherCatV1.11B39,2013-01-13 17:25:00,
2013-01-13 12:30:00,46.3,44.9,30.09,South,177,0.0,0.0,95,0.00,,,0.00,WeatherCatV1.11B39,2013-01-13 17:30:00,
2013-01-13 12:35:00,46.3,45.2,30.09,ESE,115,0.0,0.0,96,0.00,,,0.00,WeatherCatV1.11B39,2013-01-13 17:35:00,
2013-01-13 12:40:00,46.3,44.9,30.09,ESE,115,0.0,0.0,95,0.00,,,0.00,WeatherCatV1.11B39,2013-01-13 17:40:00,
2013-01-13 12:45:00,46.3,45.2,30.08,ESE,114,0.0,0.0,96,0.00,,,0.00,WeatherCatV1.11B39,2013-01-13 17:45:00,
2013-01-13 12:50:00,46.3,44.9,30.08,SE,143,0.0,0.0,95,0.00,,,0.00,WeatherCatV1.11B39,2013-01-13 17:50:00,
2013-01-13 12:55:00,46.6,45.2,30.08,South,171,0.0,0.0,95,0.00,,,0.00,WeatherCatV1.11B39,2013-01-13 17:55:00,
2013-01-13 13:00:00,46.6,45.2,30.08,South,170,0.0,0.0,95,0.00,,,0.00,WeatherCatV1.11B39,2013-01-13 18:00:00,
2013-01-13 13:05:00,46.8,45.4,30.08,South,170,0.0,0.0,95,0.00,,,0.00,WeatherCatV1.11B39,2013-01-13 18:05:00,
2013-01-13 13:10:00,46.7,45.3,30.09,South,170,0.0,0.0,95,0.00,,,0.00,WeatherCatV1.11B39,2013-01-13 18:10:00,
2013-01-13 13:15:00,46.9,45.5,30.08,South,169,0.0,0.0,95,0.00,,,0.00,WeatherCatV1.11B39,2013-01-13 18:15:00,
2013-01-13 13:20:00,46.9,45.8,30.08,South,170,0.0,0.0,96,0.00,,,0.00,WeatherCatV1.11B39,2013-01-13 18:20:00,
2013-01-13 13:25:00,46.9,45.8,30.08,SSE,167,0.0,0.0,96,0.00,,,0.00,WeatherCatV1.11B39,2013-01-13 18:25:00,
2013-01-13 13:30:00,46.9,45.8,30.08,SSE,163,0.0,0.0,96,0.00,,,0.00,WeatherCatV1.11B39,2013-01-13 18:30:00,
2013-01-13 13:35:00,47.0,45.9,30.08,SSE,154,0.0,0.0,96,0.00,,,0.00,WeatherCatV1.11B39,2013-01-13 18:35:00,
2013-01-13 13:40:00,47.0,45.6,30.08,SSE,150,0.0,0.0,95,0.00,,,0.00,WeatherCatV1.11B39,2013-01-13 18:40:00,
2013-01-13 13:45:00,47.0,45.6,30.07,SSE,150,0.0,0.0,95,0.00,,,0.00,WeatherCatV1.11B39,2013-01-13 18:45:00,
2013-01-13 13:50:00,47.0,45.6,30.07,SSE,161,0.0,3.0,95,0.00,,,0.00,WeatherCatV1.11B39,2013-01-13 18:50:00,
2013-01-13 13:55:00,46.9,45.5,30.07,SSE,161,0.0,0.0,95,0.00,,,0.00,WeatherCatV1.11B39,2013-01-13 18:55:00,
2013-01-13 14:00:00,46.7,45.6,30.07,SSE,161,0.0,0.0,96,0.00,,,0.00,WeatherCatV1.11B39,2013-01-13 19:00:00,
2013-01-13 14:05:00,46.7,45.6,30.07,SSE,161,0.0,0.0,96,0.00,,,0.00,WeatherCatV1.11B39,2013-01-13 19:05:00,
2013-01-13 14:10:00,46.9,45.5,30.06,SSE,161,0.0,0.0,95,0.00,,,0.00,WeatherCatV1.11B39,2013-01-13 19:10:00,
2013-01-13 14:15:00,47.0,45.6,30.06,SSE,160,0.0,0.0,95,0.00,,,0.00,WeatherCatV1.11B39,2013-01-13 19:15:00,
2013-01-13 14:20:00,47.2,45.8,30.05,SSE,160,0.0,0.0,95,0.00,,,0.00,WeatherCatV1.11B39,2013-01-13 19:20:00,
2013-01-13 14:25:00,47.2,46.1,30.06,SSE,160,0.0,0.0,96,0.00,,,0.00,WeatherCatV1.11B39,2013-01-13 19:25:00,
2013-01-13 14:30:00,47.1,45.7,30.06,SSE,160,0.0,0.0,95,0.00,,,0.00,WeatherCatV1.11B39,2013-01-13 19:30:00,
2013-01-13 14:35:00,47.2,45.8,30.06,SSE,160,0.0,0.0,95,0.00,,,0.00,WeatherCatV1.11B39,2013-01-13 19:35:00,
2013-01-13 14:40:00,47.2,46.1,30.07,SSE,160,0.0,0.0,96,0.00,,,0.00,WeatherCatV1.11B39,2013-01-13 19:40:00,
2013-01-13 14:45:00,47.0,45.6,30.07,SSE,160,0.0,0.0,95,0.00,,,0.00,WeatherCatV1.11B39,2013-01-13 19:45:00,
2013-01-13 14:50:00,47.2,46.1,30.06,SSE,160,0.0,2.0,96,0.00,,,0.00,WeatherCatV1.11B39,2013-01-13 19:50:00,
2013-01-13 14:55:00,47.2,46.1,30.06,SSE,160,0.0,0.0,96,0.00,,,0.00,WeatherCatV1.11B39,2013-01-13 19:55:00,
2013-01-13 15:00:00,47.3,45.9,30.06,SSE,160,0.0,0.0,95,0.00,,,0.00,WeatherCatV1.11B39,2013-01-13 20:00:00,
2013-01-13 15:05:00,47.3,46.2,30.06,SSE,160,0.0,0.0,96,0.00,,,0.00,WeatherCatV1.11B39,2013-01-13 20:05:00,
2013-01-13 15:10:00,47.3,46.2,30.06,SSE,158,0.0,0.0,96,0.00,,,0.00,WeatherCatV1.11B39,2013-01-13 20:10:00,
2013-01-13 15:15:00,47.5,46.1,30.06,SSE,158,0.0,0.0,95,0.00,,,0.00,WeatherCatV1.11B39,2013-01-13 20:15:00,
2013-01-13 15:20:00,47.5,46.1,30.06,South,174,0.0,0.0,95,0.00,,,0.00,WeatherCatV1.11B39,2013-01-13 20:20:00,
2013-01-13 15:25:00,47.5,46.1,30.06,South,182,0.0,0.0,95,0.00,,,0.00,WeatherCatV1.11B39,2013-01-13 20:25:00,
2013-01-13 15:30:00,47.5,46.1,30.05,South,181,0.0,0.0,95,0.00,,,0.00,WeatherCatV1.11B39,2013-01-13 20:30:00,
2013-01-13 15:35:00,47.5,46.1,30.04,SSE,161,0.0,0.0,95,0.00,,,0.00,WeatherCatV1.11B39,2013-01-13 20:35:00,
2013-01-13 15:40:00,47.5,46.1,30.04,SSE,161,0.0,0.0,95,0.00,,,0.00,WeatherCatV1.11B39,2013-01-13 20:40:00,
2013-01-13 15:45:00,47.5,46.1,30.05,SSE,158,0.0,0.0,95,0.00,,,0.00,WeatherCatV1.11B39,2013-01-13 20:45:00,
2013-01-13 15:50:00,47.5,46.4,30.05,SSE,158,0.0,0.0,96,0.00,,,0.00,WeatherCatV1.11B39,2013-01-13 20:50:00,
2013-01-13 15:55:00,47.0,45.9,30.06,SSE,158,0.0,0.0,96,0.00,,,0.00,WeatherCatV1.11B39,2013-01-13 20:55:00,
2013-01-13 16:00:00,46.9,45.5,30.05,SSW,202,0.0,0.0,95,0.00,,,0.00,WeatherCatV1.11B39,2013-01-13 21:00:00,
2013-01-13 16:05:00,47.3,45.9,30.05,SSW,203,0.0,0.0,95,0.00,,,0.00,WeatherCatV1.11B39,2013-01-13 21:05:00,
2013-01-13 16:10:00,47.5,46.4,30.04,SSW,201,0.0,0.0,96,0.00,,,0.00,WeatherCatV1.11B39,2013-01-13 21:10:00,
2013-01-13 16:15:00,47.5,46.4,30.04,SSW,201,0.0,0.0,96,0.00,,,0.00,WeatherCatV1.11B39,2013-01-13 21:15:00,
2013-01-13 16:20:00,47.5,46.4,30.04,South,188,0.0,0.0,96,0.00,,,0.00,WeatherCatV1.11B39,2013-01-13 21:20:00,
2013-01-13 16:25:00,47.6,46.8,30.04,South,188,0.0,0.0,97,0.00,,,0.00,WeatherCatV1.11B39,2013-01-13 21:25:00,
2013-01-13 16:30:00,47.6,46.5,30.04,South,185,0.0,0.0,96,0.00,,,0.00,WeatherCatV1.11B39,2013-01-13 21:30:00,
2013-01-13 16:35:00,47.6,46.5,30.03,South,174,0.0,1.0,96,0.00,,,0.00,WeatherCatV1.11B39,2013-01-13 21:35:00,
2013-01-13 16:40:00,47.6,46.5,30.03,South,175,0.0,0.0,96,0.00,,,0.00,WeatherCatV1.11B39,2013-01-13 21:40:00,
2013-01-13 16:45:00,47.3,46.2,30.03,South,175,0.0,2.0,96,0.00,,,0.00,WeatherCatV1.11B39,2013-01-13 21:45:00,
2013-01-13 16:50:00,47.0,45.9,30.04,SW,222,0.0,1.0,96,0.00,,,0.00,WeatherCatV1.11B39,2013-01-13 21:50:00,
2013-01-13 16:55:00,46.9,45.8,30.03,SW,224,0.0,1.0,96,0.00,,,0.00,WeatherCatV1.11B39,2013-01-13 21:55:00,
2013-01-13 17:00:00,47.0,45.6,30.03,WSW,237,0.0,6.0,95,0.00,,,0.00,WeatherCatV1.11B39,2013-01-13 22:00:00,
2013-01-13 17:05:00,47.3,46.2,30.03,South,182,0.0,3.0,96,0.00,,,0.00,WeatherCatV1.11B39,2013-01-13 22:05:00,
2013-01-13 17:10:00,47.5,46.7,30.03,SSW,192,0.0,3.0,97,0.00,,,0.00,WeatherCatV1.11B39,2013-01-13 22:10:00,
2013-01-13 17:15:00,47.4,46.3,30.02,SSW,199,0.0,0.0,96,0.00,,,0.00,WeatherCatV1.11B39,2013-01-13 22:15:00,
2013-01-13 17:20:00,47.5,46.4,30.02,South,187,0.0,0.0,96,0.00,,,0.00,WeatherCatV1.11B39,2013-01-13 22:20:00,
2013-01-13 17:25:00,47.5,46.7,30.01,South,186,0.0,6.0,97,0.00,,,0.00,WeatherCatV1.11B39,2013-01-13 22:25:00,
2013-01-13 17:30:00,47.6,46.5,30.02,South,189,3.0,7.0,96,0.00,,,0.00,WeatherCatV1.11B39,2013-01-13 22:30:00,
2013-01-13 17:35:00,47.7,46.6,30.02,SW,215,0.0,0.0,96,0.00,,,0.00,WeatherCatV1.11B39,2013-01-13 22:35:00,
2013-01-13 17:40:00,47.8,47.0,30.02,SSW,211,0.0,0.0,97,0.00,,,0.00,WeatherCatV1.11B39,2013-01-13 22:40:00,
2013-01-13 17:46:00,47.9,46.8,30.02,SW,218,0.0,0.0,96,0.00,,,0.00,WeatherCatV1.11B39,2013-01-13 22:46:00,
2013-01-13 17:51:00,47.9,46.8,30.02,SSE,168,0.0,0.0,96,0.00,,,0.00,WeatherCatV1.11B39,2013-01-13 22:51:00,
2013-01-13 17:56:00,48.1,47.0,30.02,SSE,167,0.0,0.0,96,0.00,,,0.00,WeatherCatV1.11B39,2013-01-13 22:56:00,
2013-01-13 18:01:00,48.1,47.3,30.02,SSE,167,0.0,0.0,97,0.00,,,0.00,WeatherCatV1.11B39,2013-01-13 23:01:00,
2013-01-13 18:06:00,48.1,47.0,30.02,SSE,167,0.0,0.0,96,0.00,,,0.00,WeatherCatV1.11B39,2013-01-13 23:06:00,
2013-01-13 18:11:00,47.9,46.8,30.03,SSE,167,0.0,0.0,96,0.00,,,0.00,WeatherCatV1.11B39,2013-01-13 23:11:00,
2013-01-13 18:16:00,47.8,46.7,30.03,SSE,166,0.0,0.0,96,0.00,,,0.00,WeatherCatV1.11B39,2013-01-13 23:16:00,
2013-01-13 18:21:00,47.7,46.3,30.02,SSE,166,0.0,0.0,95,0.00,,,0.00,WeatherCatV1.11B39,2013-01-13 23:21:00,
2013-01-13 18:26:00,48.1,47.0,30.03,SSE,166,0.0,0.0,96,0.00,,,0.00,WeatherCatV1.11B39,2013-01-13 23:26:00,
2013-01-13 18:31:00,48.2,47.1,30.03,SW,215,0.0,0.0,96,0.00,,,0.00,WeatherCatV1.11B39,2013-01-13 23:31:00,
2013-01-13 18:36:00,48.2,47.1,30.03,SW,236,0.0,9.0,96,0.00,,,0.00,WeatherCatV1.11B39,2013-01-13 23:36:00,
2013-01-13 18:41:00,48.6,47.5,30.03,WSW,257,6.0,9.0,96,0.00,,,0.00,WeatherCatV1.11B39,2013-01-13 23:41:00,
2013-01-13 18:46:00,49.2,48.1,30.03,WSW,248,5.0,11.0,96,0.00,,,0.00,WeatherCatV1.11B39,2013-01-13 23:46:00,
2013-01-13 18:51:00,49.7,48.6,30.03,WSW,244,5.0,8.0,96,0.00,,,0.00,WeatherCatV1.11B39,2013-01-13 23:51:00,
2013-01-13 18:56:00,49.6,48.5,30.03,WSW,246,5.0,7.0,96,0.00,,,0.00,WeatherCatV1.11B39,2013-01-13 23:56:00,
2013-01-13 19:01:00,49.7,48.3,30.03,WSW,243,3.0,9.0,95,0.00,,,0.00,WeatherCatV1.11B39,2013-01-14 00:01:00,
2013-01-13 19:06:00,49.2,47.8,30.02,WSW,243,7.0,7.0,95,0.00,,,0.00,WeatherCatV1.11B39,2013-01-14 00:06:00,
2013-01-13 19:11:00,49.1,47.4,30.03,WSW,246,5.0,7.0,94,0.00,,,0.00,WeatherCatV1.11B39,2013-01-14 00:11:00,
2013-01-13 19:16:00,49.0,47.3,30.03,WSW,251,8.0,9.0,94,0.00,,,0.00,WeatherCatV1.11B39,2013-01-14 00:16:00,
2013-01-13 19:21:00,49.0,47.3,30.04,WSW,243,6.0,9.0,94,0.00,,,0.00,WeatherCatV1.11B39,2013-01-14 00:21:00,
2013-01-13 19:26:00,48.8,47.2,30.04,WSW,242,3.0,7.0,94,0.00,,,0.00,WeatherCatV1.11B39,2013-01-14 00:26:00,
2013-01-13 19:31:00,49.4,47.7,30.04,SW,228,5.0,11.0,94,0.00,,,0.00,WeatherCatV1.11B39,2013-01-14 00:31:00,
2013-01-13 19:36:00,50.5,48.8,30.03,SW,236,5.0,9.0,94,0.00,,,0.00,WeatherCatV1.11B39,2013-01-14 00:36:00,
2013-01-13 19:41:00,50.4,48.5,30.03,SW,233,9.0,10.0,93,0.00,,,0.00,WeatherCatV1.11B39,2013-01-14 00:41:00,
2013-01-13 19:46:00,50.3,48.1,30.03,WSW,254,0.0,8.0,92,0.00,,,0.00,WeatherCatV1.11B39,2013-01-14 00:46:00,
2013-01-13 19:51:00,50.1,47.6,30.03,WSW,252,3.0,7.0,91,0.00,,,0.00,WeatherCatV1.11B39,2013-01-14 00:51:00,
2013-01-13 19:56:00,50.0,47.5,30.03,WSW,239,0.0,7.0,91,0.00,,,0.00,WeatherCatV1.11B39,2013-01-14 00:56:00,
2013-01-13 20:01:00,49.7,46.9,30.04,WSW,238,6.0,6.0,90,0.00,,,0.00,WeatherCatV1.11B39,2013-01-14 01:01:00,
2013-01-13 20:06:00,49.8,47.0,30.03,WSW,246,0.0,7.0,90,0.00,,,0.00,WeatherCatV1.11B39,2013-01-14 01:06:00,
2013-01-13 20:11:00,49.7,46.9,30.03,WSW,242,0.0,3.0,90,0.00,,,0.00,WeatherCatV1.11B39,2013-01-14 01:11:00,
2013-01-13 20:16:00,49.8,47.0,30.02,SSW,203,0.0,5.0,90,0.00,,,0.00,WeatherCatV1.11B39,2013-01-14 01:16:00,
2013-01-13 20:21:00,50.0,47.2,30.02,SW,222,1.0,1.0,90,0.00,,,0.00,WeatherCatV1.11B39,2013-01-14 01:21:00,
2013-01-13 20:26:00,50.0,47.2,30.02,WSW,252,0.0,4.0,90,0.00,,,0.00,WeatherCatV1.11B39,2013-01-14 01:26:00,
2013-01-13 20:31:00,49.7,46.6,30.02,SW,234,0.0,5.0,89,0.00,,,0.00,WeatherCatV1.11B39,2013-01-14 01:31:00,
2013-01-13 20:36:00,49.7,47.2,30.02,WSW,242,5.0,11.0,91,0.00,,,0.00,WeatherCatV1.11B39,2013-01-14 01:36:00,
2013-01-13 20:41:00,49.4,46.6,30.03,WSW,240,0.0,6.0,90,0.00,,,0.00,WeatherCatV1.11B39,2013-01-14 01:41:00,
2013-01-13 20:46:00,49.4,46.6,30.03,SSW,208,0.0,4.0,90,0.00,,,0.00,WeatherCatV1.11B39,2013-01-14 01:46:00,
2013-01-13 20:51:00,49.4,46.6,30.02,WSW,241,0.0,6.0,90,0.00,,,0.00,WeatherCatV1.11B39,2013-01-14 01:51:00,
2013-01-13 20:56:00,49.2,46.7,30.02,WSW,241,0.0,0.0,91,0.00,,,0.00,WeatherCatV1.11B39,2013-01-14 01:56:00,
2013-01-13 21:01:00,49.4,46.9,30.02,SSW,206,0.0,0.0,91,0.00,,,0.00,WeatherCatV1.11B39,2013-01-14 02:01:00,
2013-01-13 21:06:00,49.4,46.9,30.01,SW,224,4.0,8.0,91,0.00,,,0.00,WeatherCatV1.11B39,2013-01-14 02:06:00,
2013-01-13 21:11:00,49.2,46.7,30.01,SW,233,0.0,0.0,91,0.00,,,0.00,WeatherCatV1.11B39,2013-01-14 02:11:00,
2013-01-13 21:16:00,49.2,46.7,30.00,WSW,248,0.0,0.0,91,0.00,,,0.00,WeatherCatV1.11B39,2013-01-14 02:16:00,
2013-01-13 21:21:00,48.8,46.0,30.00,WSW,245,0.0,5.0,90,0.00,,,0.00,WeatherCatV1.11B39,2013-01-14 02:21:00,
2013-01-13 21:26:00,48.4,45.6,30.01,WSW,252,6.0,11.0,90,0.00,,,0.00,WeatherCatV1.11B39,2013-01-14 02:26:00,
2013-01-13 21:31:00,48.9,46.7,30.01,WSW,250,7.0,11.0,92,0.00,,,0.00,WeatherCatV1.11B39,2013-01-14 02:31:00,
2013-01-13 21:36:00,49.1,46.9,30.01,WSW,246,4.0,7.0,92,0.00,,,0.00,WeatherCatV1.11B39,2013-01-14 02:36:00,
2013-01-13 21:41:00,48.5,45.7,30.00,WSW,247,0.0,5.0,90,0.00,,,0.00,WeatherCatV1.11B39,2013-01-14 02:41:00,
2013-01-13 21:46:00,48.5,46.3,30.00,WSW,247,0.0,0.0,92,0.00,,,0.00,WeatherCatV1.11B39,2013-01-14 02:46:00,
2013-01-13 21:51:00,48.4,45.9,30.00,WSW,247,0.0,0.0,91,0.00,,,0.00,WeatherCatV1.11B39,2013-01-14 02:51:00,
2013-01-13 21:56:00,48.4,46.2,30.00,WSW,239,0.0,0.0,92,0.00,,,0.00,WeatherCatV1.11B39,2013-01-14 02:56:00,
2013-01-13 22:01:00,48.8,46.9,30.00,SW,227,0.0,0.0,93,0.00,,,0.00,WeatherCatV1.11B39,2013-01-14 03:01:00,
2013-01-13 22:06:00,49.0,46.8,30.00,SW,232,0.0,0.0,92,0.00,,,0.00,WeatherCatV1.11B39,2013-01-14 03:06:00,
2013-01-13 22:11:00,49.1,47.2,30.00,WSW,251,3.0,5.0,93,0.00,,,0.00,WeatherCatV1.11B39,2013-01-14 03:11:00,
2013-01-13 22:16:00,49.2,47.3,30.00,WSW,251,0.0,0.0,93,0.00,,,0.00,WeatherCatV1.11B39,2013-01-14 03:16:00,
2013-01-13 22:21:00,49.1,46.9,30.01,WSW,251,0.0,0.0,92,0.00,,,0.00,WeatherCatV1.11B39,2013-01-14 03:21:00,
2013-01-13 22:26:00,49.4,47.2,30.00,West,266,0.0,5.0,92,0.00,,,0.00,WeatherCatV1.11B39,2013-01-14 03:26:00,
2013-01-13 22:31:00,49.4,47.5,30.00,West,266,0.0,0.0,93,0.00,,,0.00,WeatherCatV1.11B39,2013-01-14 03:31:00,
2013-01-13 22:36:00,49.3,47.1,30.00,West,266,0.0,0.0,92,0.00,,,0.00,WeatherCatV1.11B39,2013-01-14 03:36:00,
2013-01-13 22:41:00,49.2,47.3,30.00,West,266,0.0,0.0,93,0.00,,,0.00,WeatherCatV1.11B39,2013-01-14 03:41:00,
2013-01-13 22:46:00,49.1,46.9,30.01,West,266,0.0,0.0,92,0.00,,,0.00,WeatherCatV1.11B39,2013-01-14 03:46:00,
2013-01-13 22:51:00,49.0,46.8,30.01,West,266,2.0,2.0,92,0.00,,,0.00,WeatherCatV1.11B39,2013-01-14 03:51:00,
2013-01-13 22:56:00,49.0,46.8,30.01,West,266,0.0,0.0,92,0.00,,,0.00,WeatherCatV1.11B39,2013-01-14 03:56:00,
2013-01-13 23:01:00,48.8,46.6,30.01,SSW,201,0.0,2.0,92,0.00,,,0.00,WeatherCatV1.11B39,2013-01-14 04:01:00,
2013-01-13 23:06:00,48.5,46.3,30.01,SW,219,0.0,0.0,92,0.00,,,0.00,WeatherCatV1.11B39,2013-01-14 04:06:00,
2013-01-13 23:11:00,48.4,46.2,30.00,WSW,244,0.0,0.0,92,0.00,,,0.00,WeatherCatV1.11B39,2013-01-14 04:11:00,
2013-01-13 23:16:00,48.4,46.5,30.00,WSW,244,0.0,0.0,93,0.00,,,0.00,WeatherCatV1.11B39,2013-01-14 04:16:00,
2013-01-13 23:21:00,48.5,46.6,30.00,WSW,244,0.0,0.0,93,0.00,,,0.00,WeatherCatV1.11B39,2013-01-14 04:21:00,
2013-01-13 23:26:00,48.5,46.6,30.00,WSW,242,0.0,0.0,93,0.00,,,0.00,WeatherCatV1.11B39,2013-01-14 04:26:00,
2013-01-13 23:31:00,48.2,46.3,30.00,WSW,241,0.0,4.0,93,0.00,,,0.00,WeatherCatV1.11B39,2013-01-14 04:31:00,
2013-01-13 23:36:00,48.5,46.6,30.00,WSW,241,0.0,0.0,93,0.00,,,0.00,WeatherCatV1.11B39,2013-01-14 04:36:00,
2013-01-13 23:41:00,48.5,46.6,30.01,WSW,243,0.0,0.0,93,0.00,,,0.00,WeatherCatV1.11B39,2013-01-14 04:41:00,
2013-01-13 23:46:00,48.5,46.9,30.00,WSW,239,0.0,0.0,94,0.00,,,0.00,WeatherCatV1.11B39,2013-01-14 04:46:00,
2013-01-13 23:51:00,48.5,46.9,30.00,WSW,251,4.0,5.0,94,0.00,,,0.00,WeatherCatV1.11B39,2013-01-14 04:51:00,
2013-01-13 23:56:00,48.8,47.2,30.00,WSW,239,0.0,0.0,94,0.00,,,0.00,WeatherCatV1.11B39,2013-01-14 04:56:00,